Regional Weather Roundup
Issued by NWS

Home | Current Version | Previous Version | Text Only | Print | Product List | Glossary On
Versions: 1 2 3 4 5 6 7 8 9 10 11 12 13 14 15 16 17 18 19 20 21 22 23 24 25 26 27 28 29 30 31 32 33 34 35 36 37 38 39 40 41 42 43 44 45 46 47 48 49 50
000
ASUS43 KBIS 291220
RWRND

NORTH DAKOTA REGIONAL WEATHER ROUNDUP
NATIONAL WEATHER SERVICE BISMARCK ND
700 AM CDT SUN MAR 29 2015

NOTE: "FAIR" INDICATES FEW OR NO CLOUDS BELOW 12,000 FEET WITH NO
SIGNIFICANT WEATHER AND/OR OBSTRUCTIONS TO VISIBILITY.


NDZ001>003-009>011-017-291300-
NORTHWEST NORTH DAKOTA

CITY           SKY/WX    TMP DP  RH WIND       PRES   REMARKS
WILLISTON      CLEAR     35  32  88 NW13      30.02R
6HR MIN TEMP:  35; 6HR MAX TEMP:  42; 6HR PCP: TRACE;

MINOT          CLEAR     36  31  82 W28G33    29.89R
MINOT AFB      CLEAR     35  35  99 NW21G26   29.88R
$$

NDZ018>021-031>035-040>046-291300-
SOUTHWEST NORTH DAKOTA

CITY           SKY/WX    TMP DP  RH WIND       PRES   REMARKS
BISMARCK       CLOUDY    40  34  79 NW24G37   29.91R
6HR MIN TEMP:  40; 6HR MAX TEMP:  50; 6HR PCP:  0.13;

DICKINSON      CLEAR     34  31  88 NW10      30.02R
GARRISON         N/A     36  32  85 NW26G36   29.91R
6HR MIN TEMP:  36; 6HR MAX TEMP:  48;

HETTINGER ARPT CLEAR     35  31  85 NW24G31   30.03R
$$

NDZ004>008-012>016-024-026-027-054-291300-
NORTHEAST NORTH DAKOTA

CITY           SKY/WX    TMP DP  RH WIND       PRES   REMARKS
GRAND FORKS    CLOUDY    39  34  82 N31G44    29.59R
GRND FRKS AFB  CLOUDY    39  33  80 N29G43    29.61R
DEVILS LAKE    PTCLDY    37  30  75 NW22G30   29.74R
$$

NDZ022-023-025-028>030-036>039-047>053-291300-
SOUTHEAST NORTH DAKOTA

CITY           SKY/WX    TMP DP  RH WIND       PRES   REMARKS
FARGO          LGT RAIN  43  38  82 N30G46    29.56R
6HR MIN TEMP:  40; 6HR MAX TEMP:  47; 6HR PCP:  0.23;

JAMESTOWN      CLOUDY    40  39  97 NW28G38   29.69R
$$



USA.gov is the U.S. government's official web portal to all federal, state and local government web resources and services.